Regional Weather Roundup
Issued by NWS Midland/Odessa, TX

Home | Current Version | Previous Version | Text Only | Print | Product List | Glossary On
Versions: 1 2 3 4 5 6 7 8 9 10 11 12 13 14 15 16 17 18 19 20 21 22 23 24 25 26 27 28 29 30 31 32 33 34 35 36 37 38 39 40 41 42 43 44 45 46 47 48 49 50
000
ASUS44 KMAF 211010
RWRMAF
MIDLAND AREA WEATHER ROUNDUP
NATIONAL WEATHER SERVICE MIDLAND TX
400 AM CST SUN JAN 21 2018

...IN SOUTHWEST TEXAS AND SOUTHEAST NEW MEXICO...

CITY           SKY/WX    TMP DP  RH WIND       PRES   REMARKS
ALPINE         PTCLDY    56  21  25 SW17      29.92S
ANDREWS        FAIR      43  41  91 SW10      29.80S WCI  38
ARTESIA        CLEAR     55  25  30 S14G21    29.78S
BIG SPRING     CLOUDY    45  44  95 S14       29.82F WCI  39
CARLSBAD       CLEAR     57  26  30 SW17      29.76F
DRYDEN           N/A    N/A N/A N/A NE6       29.84F
FORT STOCKTON  CLEAR     57  29  34 S15       29.82R
GUAD PASS      PTCLDY    48  23  37 W26G33    29.86S WCI  40
HOBBS          CLEAR     37  25  60 W5        29.79F WCI  34
LAMESA         PTSUNNY   43  37  81 S9        29.80S WCI  37
MARFA          CLEAR     30  21  69 N3        29.93
MIDLAND AIRPK    N/A     47  43  85 S13       29.81F
MIDLAND INTL   CLEAR     46  42  86 S12       29.81S
ODESSA         CLEAR     41  38  89 S8        29.81S WCI  36
PECOS          CLEAR     35  20  54 NW6       29.80F WCI  30
PRESIDIO       FAIR      50  23  34 N6        29.88S
SEMINOLE       CLEAR     40  32  73 W6        29.81S WCI  36
SNYDER         CLEAR     45  43  91 S13G18    29.81F WCI  39
WINK           CLEAR     36  33  89 E5        29.79F WCI  32
$$
...OTHER STATIONS IN TEXAS...

CITY           SKY/WX    TMP DP  RH WIND       PRES   REMARKS
ABILENE        CLOUDY    54  51  90 S28G35    29.81F
AMARILLO       PTCLDY    43  18  36 S12       29.72F WCI  37
AUSTIN         DRIZZLE   63  63 100 S10       29.93F
BROWNSVILLE    CLOUDY    67  66  97 S9        29.95S
CORPUS CHRISTI CLOUDY    65  65 100 S16       29.94F FOG
DALLAS FTW     CLOUDY    65  59  81 S20       29.87F
DEL RIO        CLOUDY    51  51 100 E7        29.86F FOG
EL PASO        PTCLDY    47  32  56 NW14G24   29.90R
HOUSTON INT    CLOUDY    67  65  93 S12       30.00F
LUBBOCK        PTCLDY    46  28  49 SW12      29.76F
SAN ANGELO       N/A    N/A N/A N/A MISG      29.84F
SAN ANTONIO    CLOUDY    63  61  93 S10       29.94F
WACO           CLOUDY    60  59  96 S13       29.91F
WICHITA FALLS  CLOUDY    51  49  92 S12       29.69S
$$
...OTHER LOCATIONS IN NEW MEXICO...

CITY           SKY/WX    TMP DP  RH WIND       PRES   REMARKS
ALAMOGORDO     CLOUDY    48  28  46 W22G30    29.91R
ALBUQUERQUE    PTCLDY    35  24  64 W7        29.86S WCI  29
CANNON AFB     CLEAR     40  20  43 SW13      29.75S WCI  33
CLOVIS         CLEAR     41  19  41 SW12      29.74F WCI  34
HOLLOMAN AFB   CLOUDY    48  29  47 SW21G26   29.92R
ROSWELL        CLEAR     49  23  36 SW9       29.75S
RUIDOSO        LGT RAIN  36  32  87 W12       29.83S WCI  27
SANTA FE       PTCLDY    27  26  96 SE6       29.81F WCI  20
TRUTH OR CONSE CLEAR     41  16  36 W18G30    29.88R WCI  32
TUCUMCARI      PTCLDY    45  19  35 SW12      29.68S WCI  39
$$




USA.gov is the U.S. government's official web portal to all federal, state and local government web resources and services.